[[{"header":{"parameterUnit":"m.s-1","parameterCategory":1,"la1":30.2991,"la2":30.254,"lo1":-89.0895,"lo2":-89.0444,"dy":0.0017,"dx":0.0017,"nx":28,"ny":28,"refTime":"2025-06-08T09:00:00:Z","depth":0,"parameterNumber":2,"parameterNumberName":"U-component_of_WINDS"},"data":[0,0,0,0,0,0,0,0,0,0,0,0,0,0,0,0,0,0,0,0,0,0,0,0,0,0,0,0,0,0,0,0,0,0,0,0,0,0,0,0,0,0,0,0,0,0,0,0,0,0,0,0,0,0,0,0,0,0,4.2818,4.2819,0,4.2909,4.291,4.2911,4.2819,4.2815,4.2812,4.2808,4.2902,4.2908,4.2914,0,0,0,0,0,0,0,0,0,0,0,0,0,4.2563,4.2568,4.2818,4.2819,4.282,4.2909,4.291,4.2911,4.282,4.2815,4.2811,4.2807,4.29,4.2907,4.2914,0,0,0,0,0,0,0,0,0,0,0,0,0,4.2666,4.257,4.2818,4.2785,4.2783,4.2908,4.291,4.2911,4.282,4.2815,4.281,4.2805,4.2898,4.2906,4.2915,4.3077,0,0,4.2942,4.2946,0,0,0,0,0,0,0,0,4.266,4.2675,4.2789,4.2788,4.2786,4.2847,4.2854,4.2967,4.2822,4.2806,4.2808,4.2802,4.2888,4.2897,4.2926,4.3082,4.3086,4.2943,4.2948,4.2952,4.2954,0,0,0,0,0,0,0,4.2653,4.2671,4.2854,4.2791,4.2789,4.2765,4.2774,4.2875,4.2876,4.2807,4.2801,4.2813,4.2886,4.2918,4.2928,4.3087,4.2942,4.295,4.2956,4.2959,4.3374,4.3379,0,0,0,0,0,0,4.265,4.2666,4.2851,4.2857,4.2708,4.2774,4.2784,4.2833,4.2875,4.2876,4.2817,4.2808,4.2906,4.2918,4.2931,4.3119,4.2952,4.296,4.2965,4.3368,4.3375,4.3381,0,0,0,0,0,0,4.2645,4.2667,4.2847,4.2759,4.278,4.2784,4.284,4.2837,4.2869,4.2883,4.2882,4.285,4.2902,4.2918,4.304,4.3121,4.2964,4.2972,4.3361,4.337,4.3378,4.3499,0,0,0,0,0,0,4.2638,4.2666,4.2728,4.2761,4.2786,4.2956,4.2845,4.2843,4.2884,4.2873,4.2913,4.2914,4.2899,4.3027,4.3049,4.313,4.2979,4.3354,4.3365,4.3375,4.3488,4.3511,4.353,0,0,0,0,0,4.2629,4.276,4.2732,4.2755,4.2864,4.2961,4.2975,4.2954,4.2891,4.2953,4.2961,4.2913,4.3109,4.3041,4.3064,4.3149,4.3349,4.3362,4.3374,4.3478,4.3506,4.353,0,0,0,0,0,0,4.2738,4.2764,4.2733,4.2879,4.2918,4.2945,4.3023,4.2985,4.3044,4.3031,4.3003,4.3013,4.3141,4.3158,4.3081,4.3305,4.3218,4.3237,4.3289,4.3316,4.3337,4.3329,4.2986,0,0,0,0,0,4.2779,4.2856,4.2875,4.3002,4.3023,4.302,4.3062,4.3042,4.3082,4.3098,4.3115,4.3155,4.3225,4.3272,4.3338,4.349,4.3495,4.356,4.3581,4.3599,4.3614,4.3691,4.3718,4.3424,4.3423,4.3423,0,0,4.2865,4.2888,4.2939,4.3024,4.3052,4.3131,4.3034,4.3124,4.3181,4.3112,4.3226,4.324,4.3283,4.3419,4.348,4.3437,4.3697,4.3615,4.3629,4.3635,4.3707,4.3735,4.376,4.3432,4.3431,4.3429,0,0,4.306,4.3087,4.3193,4.3223,4.3266,4.3262,4.3288,4.332,4.3326,4.344,4.3388,4.3456,4.3579,4.361,4.3642,4.3844,4.3801,4.3867,4.3977,4.4052,4.4076,4.4096,4.4164,4.4189,4.3883,4.3883,4.3883,0,4.316,4.3278,4.3253,4.3344,4.3381,4.3321,4.3426,4.3456,4.3519,4.3546,4.3497,4.3645,4.3671,4.3811,4.386,4.3889,4.3915,4.3861,4.4074,4.4095,4.4113,4.4178,4.4204,4.389,4.3889,4.3889,4.3888,0,4.3397,4.3479,4.3559,4.3619,4.3666,4.3764,4.3753,4.3803,4.3779,4.378,4.3894,4.3922,4.399,4.4022,4.4001,4.4159,4.413,4.4079,4.399,4.4149,4.4209,4.4234,4.3901,4.3898,4.3896,4.3894,0,0,4.3664,4.3706,4.3736,4.376,4.3801,4.3863,4.3958,4.4023,4.4064,4.4109,4.4185,4.4289,4.424,4.4276,4.4257,4.4324,4.4477,4.4263,4.4264,4.4298,4.4647,4.4682,4.4712,4.4449,4.4454,4.4457,4.4641,0,4.3856,4.4019,4.3998,4.4153,4.4226,4.4168,4.4249,4.4283,4.4286,4.4347,4.4351,4.4422,4.4355,4.4375,4.4439,4.4445,4.4546,4.4432,4.4516,4.452,4.4504,4.4744,4.4783,4.4955,4.4665,4.4669,4.4672,0,4.4103,4.4154,4.4316,4.4342,4.4371,4.4445,4.45,4.4561,4.4596,4.4593,4.4632,4.46,4.4692,4.4604,4.4728,4.4651,4.4684,4.4692,4.4698,4.4703,4.4603,4.4751,4.501,4.5035,4.471,4.4707,4.4704,0,4.4276,4.4385,4.4495,4.4518,4.4552,4.4604,4.4621,4.4651,4.469,4.4739,4.4763,4.4823,4.4855,4.4901,4.4884,4.4822,4.5011,4.4922,4.5008,4.5009,4.5048,4.5045,4.5313,4.5077,4.5076,4.5076,4.5075,0,4.4491,4.4591,4.4572,4.4639,4.4749,4.4723,4.4832,4.4841,4.4868,4.4934,4.489,4.4953,4.493,4.4991,4.498,4.5081,4.5098,4.5096,4.5091,4.5098,4.5097,4.5117,4.5103,4.5083,4.5081,4.508,4.5079,0,4.4702,4.4693,4.4808,4.483,4.4837,4.4917,4.4935,4.4997,4.4995,4.508,4.5098,4.5096,4.5165,4.5154,4.5233,4.5224,4.535,4.5333,4.5338,4.5332,4.5417,4.5408,4.5704,4.5739,4.5484,4.5486,4.5488,0,4.4838,4.4913,4.4942,4.4982,4.5002,4.5069,4.5107,4.5085,4.5126,4.517,4.5226,4.5291,4.5342,4.5455,4.546,4.5518,4.5499,4.5599,4.5507,4.551,4.5495,4.5489,4.5495,4.5616,4.5619,4.5621,4.5623,0,4.5079,4.507,4.5127,4.5182,4.5229,4.5271,4.5309,4.5345,4.5325,4.5374,4.5444,4.5483,4.556,4.5624,4.5678,4.5694,4.5654,4.5652,4.5674,4.568,4.5678,4.5676,4.5382,4.5645,4.5643,4.5641,4.564,4.5639,4.5253,4.5315,4.5344,4.5408,4.5434,4.5469,4.5527,4.5531,4.5589,4.5649,4.5633,4.571,4.574,4.5808,4.5829,4.5889,4.5852,4.5885,4.5893,4.59,4.5908,4.5672,4.5899,4.5898,4.5898,4.5897,4.5897,0,4.5488,4.5502,4.5562,4.5615,4.5664,4.5623,4.5662,4.5705,4.5774,4.5805,4.5855,4.5933,4.5993,4.6002,4.6059,4.6105,4.6088,4.612,4.6115,4.6118,4.5941,4.5913,4.6132,4.6132,4.6132,4.6132,4.6132,4.6132,4.5615,4.5717,4.5711,4.5823,4.5837,4.5912,4.5937,4.5969,4.5992,4.6081,4.6131,4.6136,4.6157,4.6214,4.6267,4.6268,4.6289,4.6328,4.6321,4.6155,4.6131,4.6109,4.6083,4.6334,4.6334,4.6493,4.6494,4.6496]},{"header":{"parameterUnit":"m.s-1","parameterCategory":1,"la1":30.2991,"la2":30.254,"lo1":-89.0895,"lo2":-89.0444,"dy":0.0017,"dx":0.0017,"nx":28,"ny":28,"refTime":"2025-06-08T09:00:00:Z","depth":0,"parameterNumber":3,"parameterNumberName":"V-component_of_WINDS"},"data":[0,0,0,0,0,0,0,0,0,0,0,0,0,0,0,0,0,0,0,0,0,0,0,0,0,0,0,0,0,0,0,0,0,0,0,0,0,0,0,0,0,0,0,0,0,0,0,0,0,0,0,0,0,0,0,0,0,0,3.4165,3.4167,0,3.433,3.4331,3.4333,3.4321,3.4318,3.4316,3.4313,3.4479,3.4486,3.4493,0,0,0,0,0,0,0,0,0,0,0,0,0,3.3834,3.384,3.4165,3.4167,3.4169,3.4329,3.4332,3.4334,3.4321,3.4318,3.4315,3.4312,3.4477,3.4485,3.4493,0,0,0,0,0,0,0,0,0,0,0,0,0,3.3986,3.3843,3.4164,3.4182,3.4185,3.4329,3.4332,3.4334,3.4322,3.4318,3.4314,3.4311,3.4475,3.4484,3.4494,3.463,0,0,3.4525,3.4529,0,0,0,0,0,0,0,0,3.3978,3.3998,3.4177,3.4181,3.4185,3.4301,3.4276,3.4434,3.4323,3.427,3.4313,3.4309,3.4423,3.4437,3.4476,3.4638,3.4645,3.4526,3.4532,3.4536,3.4539,0,0,0,0,0,0,0,3.3967,3.3991,3.423,3.418,3.4185,3.418,3.4198,3.4306,3.4365,3.4274,3.4274,3.4293,3.4424,3.4466,3.448,3.4648,3.4526,3.4535,3.4541,3.4545,3.4926,3.493,0,0,0,0,0,0,3.3953,3.3983,3.4225,3.4235,3.407,3.4189,3.4209,3.4267,3.4364,3.4375,3.4296,3.4292,3.4451,3.4468,3.4485,3.4649,3.4536,3.4546,3.4551,3.4922,3.4927,3.4931,0,0,0,0,0,0,3.3946,3.3975,3.4218,3.4109,3.4139,3.4199,3.4265,3.4273,3.4315,3.4381,3.4391,3.4329,3.4449,3.4471,3.4594,3.4655,3.455,3.4559,3.4917,3.4923,3.4929,3.4979,0,0,0,0,0,0,3.3937,3.3973,3.4026,3.411,3.4145,3.4326,3.4269,3.4278,3.4332,3.4328,3.4414,3.4424,3.4447,3.4579,3.4604,3.4667,3.4567,3.4912,3.492,3.4927,3.4972,3.4986,3.4998,0,0,0,0,0,3.3925,3.4034,3.4029,3.4058,3.4214,3.4329,3.4349,3.4374,3.4337,3.4391,3.4433,3.4422,3.4644,3.4591,3.4619,3.4686,3.4908,3.4918,3.4926,3.4966,3.4983,3.4997,0,0,0,0,0,0,3.3956,3.4045,3.4041,3.4181,3.4247,3.4327,3.4395,3.4392,3.447,3.4463,3.449,3.4509,3.4632,3.4671,3.4611,3.4821,3.4771,3.4786,3.4791,3.4808,3.4821,3.4809,3.4576,0,0,0,0,0,3.3979,3.4066,3.4139,3.4255,3.4289,3.4336,3.4387,3.4401,3.4471,3.4499,3.455,3.4617,3.4701,3.4757,3.4839,3.4977,3.4994,3.5036,3.5049,3.506,3.5072,3.5146,3.5165,3.4961,3.4961,3.4961,0,0,3.4027,3.4087,3.414,3.4262,3.4316,3.4404,3.436,3.4456,3.4521,3.4513,3.4632,3.4671,3.4747,3.4878,3.4938,3.4914,3.5132,3.5071,3.5079,3.5087,3.5157,3.5176,3.5194,3.4968,3.4967,3.4966,0,0,3.416,3.4215,3.4317,3.437,3.4452,3.4482,3.4506,3.4586,3.4612,3.4731,3.4726,3.4803,3.4949,3.5003,3.505,3.5199,3.5191,3.5225,3.5293,3.5364,3.538,3.5394,3.5446,3.5464,3.5238,3.5238,3.5238,0,3.421,3.4344,3.4369,3.4465,3.4518,3.4514,3.4616,3.4666,3.477,3.4805,3.4778,3.4959,3.501,3.5152,3.5188,3.5227,3.5253,3.5216,3.5376,3.539,3.5404,3.5454,3.5473,3.5241,3.5241,3.524,3.524,0,3.44,3.4493,3.4565,3.4665,3.4726,3.4824,3.4861,3.492,3.4927,3.4959,3.5079,3.514,3.5233,3.5267,3.5276,3.541,3.5392,3.537,3.532,3.5426,3.5473,3.5493,3.5246,3.5245,3.5244,3.5243,0,0,3.456,3.467,3.4696,3.474,3.4828,3.4899,3.4996,3.5087,3.5135,3.5206,3.5286,3.5408,3.5387,3.544,3.5453,3.5516,3.5628,3.5486,3.5488,3.5509,3.5777,3.5793,3.5815,3.5623,3.5627,3.563,3.577,0,3.4701,3.4874,3.4898,3.505,3.5134,3.513,3.5214,3.5275,3.5308,3.5382,3.5417,3.5503,3.5469,3.5501,3.5562,3.5602,3.5682,3.5592,3.5696,3.57,3.5677,3.584,3.5858,3.5988,3.5789,3.5792,3.5794,0,3.489,3.4965,3.5126,3.52,3.5236,3.5311,3.5395,3.5467,3.5535,3.5554,3.5612,3.5617,3.5714,3.5659,3.5793,3.573,3.5774,3.5799,3.5805,3.5816,3.5754,3.5854,3.603,3.6049,3.5824,3.5822,3.5819,0,3.4989,3.513,3.5244,3.5282,3.5371,3.5423,3.5462,3.5527,3.558,3.5652,3.5686,3.5769,3.5814,3.5877,3.5903,3.5861,3.6034,3.5982,3.6051,3.605,3.6088,3.6085,3.6273,3.6117,3.6116,3.6116,3.6116,0,3.5144,3.5242,3.5289,3.5359,3.5468,3.5492,3.5598,3.5635,3.5693,3.5768,3.5769,3.584,3.587,3.5945,3.5965,3.6071,3.6092,3.6108,3.6113,3.6108,3.6106,3.6137,3.6129,3.6121,3.612,3.6119,3.6118,0,3.5273,3.5309,3.5432,3.5505,3.5526,3.5603,3.5664,3.5731,3.5761,3.5856,3.588,3.5927,3.6015,3.6047,3.6153,3.6167,3.6289,3.6286,3.6267,3.6268,3.6334,3.6327,3.6548,3.6578,3.6403,3.6404,3.6406,0,3.537,3.5445,3.5526,3.5577,3.5618,3.57,3.5753,3.5778,3.5833,3.5915,3.5971,3.6058,3.613,3.6269,3.6311,3.6392,3.6391,3.6462,3.6403,3.6395,3.639,3.6385,3.6392,3.6474,3.6475,3.6477,3.6478,0,3.5537,3.555,3.5627,3.571,3.5773,3.5839,3.5903,3.5944,3.5979,3.604,3.613,3.6185,3.6293,3.6378,3.646,3.6498,3.6494,3.6496,3.6516,3.6513,3.6497,3.6505,3.6296,3.6491,3.649,3.6489,3.6488,3.6488,3.5652,3.5718,3.5785,3.5869,3.592,3.5979,3.6045,3.6082,3.6158,3.6248,3.6258,3.6354,3.6417,3.6527,3.6568,3.6642,3.6623,3.6652,3.6659,3.6666,3.667,3.6486,3.6657,3.6657,3.6657,3.6656,3.6656,0,3.5819,3.5861,3.5939,3.6028,3.6094,3.6083,3.6153,3.6208,3.6293,3.6353,3.6422,3.6523,3.6606,3.6654,3.6736,3.6785,3.6785,3.6806,3.6802,3.6811,3.6684,3.6658,3.6805,3.6805,3.6805,3.6805,3.6804,3.6804,3.5913,3.6023,3.6044,3.6177,3.6218,3.6313,3.6353,3.6406,3.6454,3.6568,3.6636,3.6667,3.6721,3.6807,3.6881,3.6892,3.6922,3.6945,3.6955,3.6835,3.682,3.6805,3.6781,3.6951,3.6951,3.7075,3.7076,3.7077]}]]